RH
46 49 52 49 41 37 38 36 35 34 35 35 35 35 35 35 34 32 28 28 33 35 34 35 34 31 30 30 33 35 35 37 39 40 42 41 39 39 40 42 42 44 46 43 39 39 40 40 41 42 43 42 41 42 41 41 40 39 40 39 38 37 38 41 44 45 45 45 45 45 44 44 43 43 43 42 41 42 43 39 35 34 35 35 34 34
47 50 50 45 41 38 38 36 35 36 36 37 37 35 35 36 34 33 33 32 35 40 35 34 38 36 34 32 31 34 36 37 38 39 40 39 39 39 39 41 40 40 42 39 35 35 35 35 38 40 41 41 40 40 40 39 38 37 38 38 37 38 38 38 39 40 40 40 41 43 42 42 43 41 41 41 40 41 42 40 36 33 34 36 36 36
47 48 46 44 43 42 41 39 37 37 38 38 38 38 37 36 34 33 33 33 38 42 37 36 41 39 35 33 31 32 34 37 38 38 39 38 39 40 40 41 40 39 39 36 34 35 33 32 34 39 40 40 41 40 39 38 38 37 38 38 36 37 38 36 35 38 38 35 35 38 37 38 40 39 38 39 39 40 40 40 39 35 34 36 37 36
45 43 41 41 41 42 43 42 42 41 39 38 38 41 39 37 39 37 35 36 40 42 41 42 43 41 38 35 33 33 32 35 38 40 41 39 38 39 40 40 38 38 38 36 34 34 33 31 34 38 39 39 40 41 40 39 37 37 38 37 36 37 36 34 34 36 37 35 33 34 34 36 39 39 39 41 40 40 40 40 41 39 38 39 39 38
41 38 37 38 39 40 41 43 45 45 42 38 37 41 40 40 41 39 38 39 39 40 41 44 47 42 40 41 40 38 35 34 38 40 41 39 37 37 38 39 37 35 36 35 35 33 31 32 34 39 40 39 39 41 41 39 38 39 37 36 37 36 35 34 34 37 37 37 37 37 38 40 41 42 42 43 42 40 38 38 39 39 39 40 40 40
36 34 33 34 35 37 40 44 45 45 45 41 38 39 42 43 42 40 40 41 43 45 41 46 56 48 38 42 44 40 37 37 39 39 38 39 38 36 36 37 35 34 34 32 31 30 29 31 35 40 41 39 40 41 41 39 38 39 37 35 36 35 34 34 34 36 38 38 38 40 43 44 43 42 40 39 38 36 34 33 33 33 35 35 36 39
33 32 32 32 34 36 39 44 44 44 46 45 41 41 44 45 45 43 45 47 50 49 40 41 54 51 42 42 42 40 39 40 42 39 37 39 38 35 35 35 34 34 32 29 28 27 27 30 33 37 38 37 39 41 41 38 37 38 36 34 35 34 34 34 33 35 36 35 35 36 39 40 41 40 35 32 32 32 31 30 29 30 30 31 33 36
30 30 30 30 33 35 36 41 43 43 45 45 43 43 45 46 48 48 49 51 49 43 37 36 41 49 49 43 38 39 41 42 43 40 37 40 39 35 32 33 33 33 32 28 26 26 26 29 30 32 34 34 36 39 39 36 33 35 35 34 35 34 33 33 33 34 34 33 32 33 34 35 36 36 34 32 32 31 31 31 30 30 30 30 32 35
29 29 30 30 32 33 34 38 41 42 44 44 41 43 45 45 48 49 48 47 42 38 41 39 37 47 51 41 35 36 39 43 44 39 37 37 37 33 30 31 32 32 32 27 25 25 25 27 29 30 31 32 34 36 37 34 31 31 33 33 32 32 33 31 31 33 31 30 30 32 37 37 35 35 35 36 34 31 32 32 31 32 33 33 33 34
28 28 29 29 29 31 32 36 37 40 42 40 39 41 43 43 44 45 45 45 42 42 45 42 37 45 48 38 35 36 37 41 41 38 38 36 34 32 30 31 31 30 31 27 24 24 24 26 29 30 30 31 33 34 34 34 33 31 30 30 29 31 33 29 27 30 29 28 28 30 34 39 38 35 34 35 33 31 35 37 34 34 35 34 33 33
27 28 28 26 28 30 32 35 36 37 38 37 38 40 41 41 41 42 43 42 44 47 45 41 38 42 46 38 34 35 35 36 37 36 34 32 31 31 30 31 31 31 30 27 24 23 24 26 28 29 30 31 32 32 34 35 35 33 29 27 27 30 32 28 26 28 28 27 29 30 30 35 37 34 34 37 37 36 38 39 36 35 35 34 34 35
27 27 27 25 26 30 32 34 36 36 36 36 38 40 41 42 41 42 43 41 47 49 42 38 37 41 47 41 33 31 31 31 34 34 30 27 29 29 30 31 31 30 28 26 24 22 23 26 26 27 29 30 30 31 33 34 34 34 30 26 26 28 28 27 26 28 28 27 29 30 30 31 32 33 36 38 38 39 39 38 37 37 38 39 41 42
28 27 26 24 25 27 30 34 35 35 35 36 37 39 42 45 42 43 45 43 46 47 39 37 39 41 42 37 32 31 30 30 31 30 27 25 27 29 29 30 29 29 27 25 24 23 22 24 24 26 29 30 30 30 32 33 33 34 32 27 27 27 26 27 27 27 28 28 29 30 31 31 30 29 34 38 38 40 41 42 43 45 46 48 48 49
28 27 24 23 23 24 27 33 35 35 35 36 37 38 42 46 42 40 42 42 43 43 38 38 41 42 41 33 29 30 28 28 28 27 25 25 26 28 29 28 27 27 27 25 24 23 23 23 23 25 27 29 30 31 31 32 32 34 32 27 28 29 26 27 28 27 28 29 30 31 31 31 30 27 30 36 40 41 42 46 48 49 49 50 51 51
28 28 25 22 21 21 25 30 32 32 33 33 35 37 41 44 41 41 42 40 40 40 38 39 41 44 44 34 25 24 23 23 26 26 24 24 24 25 27 27 26 27 28 27 25 24 23 23 23 24 26 28 29 31 31 31 31 33 32 26 27 30 28 27 28 27 28 30 30 30 28 27 29 30 33 36 38 40 43 47 49 48 48 48 49 48
27 28 27 22 21 21 23 25 26 28 32 32 32 35 38 40 39 40 41 38 37 38 38 38 39 38 38 32 24 23 22 21 24 25 24 23 22 23 24 26 27 28 29 28 28 26 24 23 23 24 25 26 28 30 30 31 31 31 32 29 26 31 31 28 28 28 28 29 28 28 26 26 26 29 35 37 37 40 43 46 48 48 46 45 45 44
27 28 27 23 22 22 22 23 22 26 32 31 30 33 35 36 36 38 40 38 34 36 36 35 37 37 36 34 29 25 24 23 22 24 25 23 22 23 24 25 27 29 29 28 29 28 25 23 23 24 24 25 26 29 30 31 30 29 31 30 28 32 33 29 28 28 28 28 27 26 25 26 26 28 35 39 40 42 41 41 44 45 44 43 42 42
28 30 29 24 23 24 22 21 22 24 28 29 31 32 32 33 35 35 38 36 33 34 35 32 35 38 38 38 33 27 28 26 23 23 25 24 23 24 25 26 27 28 28 28 29 29 26 23 23 23 23 23 25 27 29 31 31 29 29 29 28 30 30 28 28 29 28 26 25 25 24 25 28 33 39 42 43 42 41 41 44 44 45 46 45 44
27 28 30 25 22 25 23 22 23 24 23 25 29 30 30 35 39 38 36 36 35 34 33 32 33 34 36 37 33 29 30 29 25 24 24 23 23 24 26 26 27 28 29 28 29 28 26 23 23 23 24 24 25 26 28 30 31 29 28 28 29 30 28 27 29 29 28 26 25 25 25 25 28 35 41 42 41 41 41 43 45 47 49 50 50 50
28 28 30 28 23 24 24 22 24 25 24 23 24 26 28 31 37 40 37 36 36 35 33 34 34 33 35 34 31 31 31 29 27 26 24 24 23 24 25 26 27 29 30 30 29 28 26 24 23 23 24 25 26 26 27 29 31 30 28 27 29 30 29 28 28 27 27 25 24 24 25 26 30 35 39 39 39 41 42 41 42 46 49 51 51 51
30 28 29 30 26 25 25 24 24 26 26 25 26 27 28 28 29 33 34 32 33 33 33 32 33 36 35 31 30 32 31 29 28 27 27 25 23 24 24 24 27 30 32 31 29 27 26 24 23 24 24 25 26 26 27 29 30 30 29 28 29 29 28 27 26 26 26 25 24 24 25 26 31 34 36 37 38 41 41 40 42 45 47 49 50 51
30 29 28 30 30 29 28 26 24 26 27 27 28 28 28 28 27 28 32 32 29 29 31 31 33 36 33 30 30 31 31 30 28 27 28 27 25 23 23 25 27 30 31 31 29 27 26 24 23 24 25 25 27 26 28 30 29 30 30 29 30 29 29 29 26 24 26 25 23 24 26 29 31 33 34 36 39 41 41 42 45 46 48 48 49 49
30 30 29 30 32 33 31 29 27 26 27 27 27 28 29 29 27 28 35 36 31 28 28 28 31 33 32 30 30 31 30 29 28 28 27 27 26 24 25 27 28 28 30 31 30 29 26 24 23 24 25 26 27 27 28 29 29 30 30 30 30 31 29 29 27 27 28 26 24 25 28 31 32 33 35 38 40 42 44 46 47 47 48 48 47 48
30 30 31 32 33 33 32 32 31 30 29 27 28 28 28 29 29 29 33 35 32 30 29 29 31 33 33 33 31 32 31 29 28 27 26 27 27 26 27 28 28 27 27 29 32 31 27 24 24 26 27 27 28 28 27 28 28 30 30 30 30 30 26 26 29 31 30 27 26 28 30 32 33 34 38 41 42 44 45 47 47 47 47 47 47 48
30 30 31 33 35 36 34 33 34 32 31 31 32 31 30 30 30 29 30 29 29 30 30 30 33 35 35 33 31 31 32 30 28 26 27 27 27 28 30 30 29 27 25 28 32 31 27 26 26 26 27 27 28 29 28 27 29 30 30 30 30 29 25 26 30 32 31 29 28 29 30 33 35 37 40 42 43 44 45 46 47 47 47 47 48 48
30 31 33 34 36 37 36 36 36 36 34 34 36 35 34 34 31 32 33 32 33 35 31 29 33 36 34 31 29 30 30 30 29 27 26 26 26 28 31 32 31 28 26 27 30 30 28 27 26 26 27 26 27 28 27 27 29 30 30 29 29 29 28 29 31 31 31 32 31 32 33 34 37 38 40 43 43 44 45 46 46 46 46 47 48 48
31 32 33 33 35 37 39 39 39 37 36 35 36 36 36 36 36 35 35 36 39 38 34 32 33 33 31 28 27 28 28 28 29 28 26 25 25 27 30 31 32 31 28 28 29 30 29 29 27 26 26 26 26 27 26 27 28 30 30 29 27 27 30 31 30 29 31 33 33 35 36 37 38 39 41 42 42 43 44 44 45 45 46 46 47 48
33 32 33 34 35 36 38 40 38 37 37 36 35 36 36 38 39 36 35 38 38 35 37 39 35 31 29 26 24 26 26 26 28 27 25 25 25 26 27 29 30 31 31 29 29 29 29 30 30 27 27 27 27 27 27 27 28 28 30 30 28 27 29 30 28 29 31 33 34 36 38 39 39 39 41 42 42 42 42 43 43 44 44 46 47 48
34 33 33 34 35 34 35 37 37 37 38 38 36 36 36 37 37 35 36 37 34 33 39 42 35 31 30 25 23 25 26 26 27 28 27 27 26 26 27 27 27 29 31 29 29 29 30 32 31 28 28 28 28 28 28 27 28 29 29 30 30 30 29 28 28 31 34 35 35 36 38 39 38 38 40 41 41 41 41 42 42 43 45 47 47 46
35 35 36 34 34 35 34 35 37 37 38 38 37 35 35 35 34 34 35 35 34 36 40 40 35 32 29 26 25 27 27 27 28 30 29 28 27 27 27 26 25 26 28 29 29 30 30 33 33 30 28 27 28 29 29 28 28 29 29 29 32 33 30 28 29 32 36 37 36 37 38 37 37 38 39 40 41 41 41 41 42 44 46 47 46 45
37 37 36 34 35 36 35 34 36 37 39 40 40 38 37 37 35 35 34 33 34 37 40 40 37 32 30 27 26 26 28 27 28 30 30 28 27 27 26 26 24 24 26 27 29 30 30 32 34 33 30 26 25 27 28 27 26 28 28 28 30 32 31 31 30 30 33 36 37 37 37 35 36 37 38 40 40 41 41 42 43 45 47 47 45 44
37 37 38 35 35 37 36 35 36 38 41 43 43 40 39 38 37 36 35 33 34 35 38 38 33 31 32 30 26 25 25 25 26 29 29 29 28 26 25 24 24 24 25 26 29 30 30 32 33 32 31 29 26 25 25 24 24 25 26 27 29 31 32 32 30 30 31 33 36 36 34 34 35 36 38 39 39 40 41 43 45 46 47 46 44 44
37 38 38 36 35 38 37 36 38 41 42 44 43 40 40 40 40 39 37 36 34 34 36 35 31 32 33 30 27 26 25 23 25 28 29 30 29 27 25 23 23 24 25 27 29 29 29 31 31 30 31 30 27 25 24 23 24 24 25 26 27 29 31 30 28 29 31 34 36 35 34 34 35 36 37 38 40 41 43 45 46 47 47 46 44 44
40 39 39 38 38 40 40 39 40 42 43 43 42 40 41 41 41 41 41 40 37 34 33 32 32 33 33 30 31 33 30 26 26 29 29 29 28 27 27 25 23 24 26 29 30 30 29 30 31 30 31 30 27 26 26 26 25 24 24 27 28 30 31 29 26 28 32 35 36 36 35 36 37 37 38 38 40 43 45 47 48 48 47 46 45 46
44 42 42 40 40 42 43 41 42 44 44 43 42 41 42 42 41 42 43 42 39 36 33 32 31 32 32 31 32 34 32 29 27 29 30 29 29 29 30 29 27 25 27 29 30 30 29 29 30 30 31 30 27 27 27 27 27 27 28 31 33 34 32 31 31 33 34 34 35 35 36 38 40 40 40 40 41 43 46 48 49 49 49 48 49 51
49 48 45 42 41 44 44 41 43 45 45 45 44 43 43 44 44 45 46 46 44 40 36 33 31 30 31 32 31 30 30 29 29 30 32 31 31 32 33 34 34 32 30 29 29 30 29 29 30 30 31 32 30 28 27 26 27 29 30 33 35 35 33 34 37 38 35 33 33 34 36 39 41 43 43 43 44 47 49 50 51 51 51 51 53 56
50 52 49 44 44 47 46 44 45 48 49 49 48 47 47 47 48 48 47 48 47 42 38 35 32 32 32 31 31 30 30 30 31 34 36 35 33 32 32 36 38 38 35 33 33 33 31 30 30 31 32 33 32 30 28 26 26 28 30 32 33 33 34 35 37 39 38 35 33 36 39 42 44 46 47 48 49 51 53 54 54 54 53 54 57 61
47 52 53 50 49 48 48 49 48 49 53 54 51 49 48 47 49 48 48 50 49 45 41 38 35 35 35 33 32 32 31 30 33 38 41 40 37 32 31 35 37 37 36 34 34 34 33 30 30 32 33 34 35 34 30 27 26 28 30 32 32 33 36 38 38 41 42 39 38 41 44 46 50 51 52 54 56 57 59 59 58 56 55 58 63 66
47 50 53 55 55 52 52 54 51 52 58 58 53 52 50 49 51 49 48 51 52 48 46 43 39 39 39 37 35 34 32 33 38 44 46 44 40 35 33 35 36 36 36 35 34 34 33 31 31 32 34 35 36 36 32 30 29 30 32 34 35 37 39 40 41 45 48 47 47 48 51 54 56 56 58 59 60 61 61 59 58 57 58 64 70 70
49 51 52 55 56 55 56 58 58 60 64 61 57 55 52 53 55 52 50 54 54 52 51 49 45 44 43 41 38 38 38 39 43 48 50 47 43 39 36 36 35 34 36 37 36 36 36 34 33 33 34 36 37 37 35 35 36 36 37 39 40 42 43 44 46 50 52 53 55 57 60 62 63 64 66 67 66 66 65 63 63 65 68 72 74 72
50 51 52 54 54 54 57 62 64 64 64 62 59 57 55 55 54 52 55 59 57 54 56 55 52 49 47 45 42 42 45 47 48 50 50 47 43 42 40 40 38 37 36 37 37 38 38 37 36 34 34 35 37 38 38 40 42 42 43 44 45 45 47 49 50 53 54 57 61 64 66 68 70 73 75 73 72 74 74 72 70 71 75 76 73 73
57 52 49 52 57 58 59 66 71 67 64 65 65 61 60 60 58 57 59 60 56 55 58 58 56 54 52 50 49 48 50 51 51 51 50 47 46 45 44 43 41 39 39 39 40 41 41 40 39 38 38 37 37 39 41 42 44 46 47 48 48 49 51 53 54 55 56 58 61 65 68 71 74 77 79 78 76 75 73 71 71 73 77 77 73 74
68 59 53 52 57 61 62 66 69 65 61 65 69 67 67 69 68 65 63 60 57 58 59 60 60 59 58 56 55 54 53 53 53 54 52 50 49 47 45 45 45 44 43 43 43 44 44 44 45 46 45 44 43 44 46 48 49 50 50 51 52 54 57 59 60 61 61 62 64 67 69 70 72 74 78 79 76 74 72 72 74 78 80 76 74 78
70 68 67 63 59 59 61 62 62 59 58 61 65 66 69 72 72 70 66 63 62 63 61 61 63 64 64 63 61 60 59 57 56 56 55 54 53 50 47 46 47 47 47 46 45 45 46 48 49 51 51 51 51 51 52 54 55 56 56 57 58 59 61 64 65 66 68 68 70 71 71 71 72 75 78 79 76 73 75 77 79 81 80 76 77 84
71 70 74 74 67 66 67 68 67 66 64 63 64 64 65 68 71 73 72 69 68 69 68 66 66 69 70 69 67 65 65 64 63 61 59 57 56 54 51 49 48 47 47 47 47 48 50 51 53 54 55 57 59 59 59 59 60 61 62 63 63 62 64 66 67 68 71 72 71 72 73 75 76 78 80 79 77 77 80 81 80 80 79 79 82 85
75 72 76 79 77 74 74 74 74 70 67 65 66 65 63 64 69 74 76 72 71 73 75 73 72 72 73 72 70 69 68 69 69 68 65 62 61 58 54 52 51 51 51 49 49 50 52 54 54 56 58 59 60 63 64 65 65 67 66 65 65 64 65 67 68 69 71 73 74 74 77 78 79 80 80 78 78 81 83 82 81 79 79 80 82 84
83 80 81 83 82 80 77 75 73 72 70 68 69 69 68 67 70 74 76 75 74 74 75 75 75 74 73 71 70 69 69 70 70 70 69 67 66 65 63 61 60 61 61 60 57 57 57 56 55 56 59 61 62 63 64 66 69 70 69 67 65 63 61 62 64 66 68 73 76 77 79 80 80 80 80 80 82 84 83 82 82 81 80 82 84 82
85 83 83 84 86 85 80 75 74 75 74 72 71 71 71 69 70 72 73 73 74 76 75 74 74 74 73 72 71 69 68 67 68 69 69 69 68 69 70 69 66 65 65 64 64 64 63 62 59 58 59 62 65 66 66 68 71 71 69 66 64 60 59 59 61 64 68 73 74 75 76 77 75 77 80 83 85 85 84 83 83 83 85 87 85 80
81 82 82 84 86 86 81 78 79 81 81 79 75 73 72 71 71 74 76 74 76 78 76 73 73 73 72 72 71 70 69 68 67 66 66 67 66 64 64 63 62 63 63 64 67 69 69 67 65 63 62 65 68 70 69 69 69 68 67 64 61 60 60 62 64 66 67 69 70 70 72 73 73 76 81 86 87 86 87 88 88 88 87 85 82 78
75 79 82 83 84 85 85 85 87 88 88 87 83 79 79 78 79 81 81 76 74 75 73 71 72 73 72 71 70 69 69 70 69 68 68 68 66 62 61 61 61 62 62 63 66 69 69 66 64 63 63 66 70 71 71 69 66 64 63 61 60 59 61 63 64 65 65 66 69 71 72 72 74 77 82 86 88 87 87 90 92 89 85 81 78 74
63 68 74 78 79 81 82 81 82 86 87 85 82 81 81 80 80 81 79 74 72 70 68 68 68 68 70 71 70 70 71 71 70 69 67 67 66 63 61 60 60 60 60 59 59 60 61 62 61 61 62 65 67 68 68 66 64 62 61 60 60 60 62 64 66 66 67 69 70 69 69 70 74 78 82 86 87 86 86 88 89 85 79 75 72 68